EHI
0 0 0 0 0 0 0 0 0 0 0 0 0 0 0 0 0 0 0 0 0 0 0 0 0 0 0 0 0 0 0 0 0 0 0 0 0 0
0 0 0 0 0 0 0 0 0 0 0 0 0 0 0 0 0 0 0 0 0 0 0 0 0 0 0 0 0 0 0 0 0 0 0 0 0 0
0 0 0 0 0 0 0 0 0 0 0 0 0 0 0 0 0 0 0 0 0 0 0 0 0 0 0 0 0 0 0 0 0 0 0 0 0 0
0 0 0 0 0 0 0 0 0 0 0 0 0 0 0 0 0 0 0 0 0 0 0 0 0 0 0 0 0 0 0 0 0 0 0 0 0 0
0 0 0 0 0 0 0 0 0 0 0 0 0 0 0 0 0 0 0 0 0 0 0 0 0 0 0 0 0 0 0 0 0 0 0 0 0 0
0 0 0 0 0 0 0 0 0 0 0 0 0 0 0 0 0 0 0 0 0 0 0 0 0 0 0 0 0 0 0 0 0 0 0 0 0 0
0 0 0 0 0 0 0 0 0 0 0 0 0 0 0 0 0 0 0 0 0 0 0 0 0 0 0 0 0 0 0 0 0 0 0 0 0 0
0 0 0 0 0 0 0 0 0 0 0 0 0 0 0 0 0 0 0 0 0 0 0 0 0 0 0 0 0 0 0 0 0 0 0 0 0 0
0 0 0 0 0 0 0 0 0 0 0 0 0 0 0 0 0 0 0 0 0 0 0 0 0 0 0 0 0 0 0 0 0 0 0 0 0 0
0 0 0 0 0 0 0 0 0 0 0 0 0 0 0 0 0 0 0 0 0 0 0 0 0 0 0 0 0 0 0 0 0 0 0 0 0 0
0 0 0 0 0 0 0 0 0 0 0 0 0 0 0 0 0 0 0 0 0 0 0 0 0 0 0 0 0 0 0 0 0 0 0 0 0 0
0 0 0 0 0 0 0 0 0 0 0 0 0 0 0 0 0 0 0 0 0 0 0 0 0 0 0 0 0 0 0 0 0 0 0 0 0 0
0 0 0 0 0 0 0 0 0 0 0 0 0 0 0 0 0 0 0 0 0 0 0 0 0 0 0 0 0 0 0 0 0 0 0 0 0 0
0 0 0 0 0 0 0 0 0 0 0 0 0 0 0 0 0 0 0 0 0 0 0 0 0 0 0 0 0 0 0 0 0 0 0 0 0 0
0 0 0 0 0 0 0 0 0 0 0 0 0 0 0 0 0 0 0 0 0 0 0 0 0 0 0 0 0 0 0 0 0 0 0 0 0 0
0 0 0 0 0 0 0 0 0 0 0 0 0 0 0 0 0 0 0 0 0 0 0 0 0 0 0 0 0 0 0 0 0 0 0 0 0 0
0 0 0 0 0 0 0 0 0 0 0 0 0 0 0 0 0 0 0 0 0 0 0 0 0 0 0 0 0 0 0 0 0 0 0 0 0 0
0 0 0 0 0 0 0 0 0 0 0 0 0 0 0 0 0 0 0 0 0 0 0 0 0 0 0 0 0 0 0 0 0 0 0 0 0 0
0 0 0 0 0 0 0 0 0 0 0 0 0 0 0 0 0 0 0 0 0 0 0 0 0 0 0 0 0 0 0 0 0 0 0 0 0 0
0 0 0 0 0 0 0 0 0 0 0 0 0 0 0 0 0 0 0 0 0 0 0 0 0 0 0 0 0 0 0 0 0 0 0 0 0 0
0 0 0 0 0 0 0 0 0 0 0 0 0 0 0 0 0 0 0 0 0 0 0 0 0 0 0 0 0 0 0 0 0 0 0 0 0 0
0 0 0 0 0 0 0 0 0 0 0 0 0 0 0 0 0 0 0 0 0 0 0 0 0 0 0 0 0 0 0 0 0 0 0 0 0 0
0 0 0 0 0 0 0 0 0 0 0 0 0 0 0 0 0 0 0 0 0 0 0 0 0 0 0 0 0 0 0 0 0 0 0 0 0 0
Wind_Speed
7 7 6 6 6 6 6 6 6 6 6 5 3 4 3 3 3 4 5 5 6 6 6 6 5 5 5 4 5 5 6 6 6 6 7 7 8 8
5 7 7 5 6 6 5 6 6 7 6 4 4 4 4 3 4 5 5 5 6 7 6 5 5 5 5 5 5 5 5 6 6 7 7 7 7 8
6 6 6 6 6 5 5 6 6 6 6 5 3 4 5 5 4 5 4 4 4 6 7 6 6 6 6 6 5 5 6 6 6 7 7 7 8 7
7 6 7 5 6 5 5 6 6 7 6 6 4 4 5 5 5 5 4 4 5 5 7 7 7 7 7 7 6 6 6 6 6 7 7 7 8 8
7 7 7 6 6 5 5 6 5 5 5 5 5 4 4 4 4 5 5 5 4 5 6 7 7 8 8 8 7 7 6 7 7 7 7 7 7 8
6 6 6 6 6 6 5 6 6 6 6 5 5 4 4 4 4 4 4 4 4 4 5 6 6 8 8 8 7 7 7 7 7 7 7 7 7 7
6 6 6 7 7 7 5 5 6 5 5 6 5 5 4 4 5 4 5 4 4 4 4 5 5 5 5 7 7 7 7 7 7 7 7 7 7 7
6 7 7 7 7 8 9 9 8 7 7 6 6 6 6 5 5 4 4 4 4 3 4 5 4 5 5 5 6 7 7 8 7 8 8 8 8 8
7 7 5 5 7 6 7 8 8 9 9 7 8 8 7 6 6 6 6 6 5 3 4 5 5 6 5 5 8 8 9 9 8 8 8 9 9 9
7 7 7 6 6 6 6 7 7 7 7 7 8 8 7 6 7 7 7 6 5 4 4 5 5 5 4 5 9 10 10 10 9 9 10 10 10 9
7 7 7 7 8 8 7 7 7 6 7 8 9 8 8 8 7 5 5 5 5 4 4 4 3 4 5 5 6 9 10 10 10 10 10 10 10 9
5 6 8 8 8 8 7 6 7 6 5 5 6 7 7 7 8 8 6 6 5 4 4 4 3 2 3 4 4 5 6 9 10 10 10 10 9 7
5 5 5 7 9 9 8 7 7 7 6 6 5 5 4 4 5 5 5 6 6 5 4 3 3 3 4 4 4 4 5 5 6 7 9 10 10 8
6 5 5 8 9 9 7 7 8 7 5 4 4 4 4 4 4 5 5 6 6 6 6 5 4 4 4 5 5 4 4 5 5 6 5 8 10 12
6 7 8 8 8 7 7 7 7 5 4 5 5 5 4 4 4 4 4 5 5 5 5 6 5 5 5 6 5 4 4 4 5 5 5 5 6 6
5 5 7 7 6 6 5 5 4 4 5 5 5 4 4 4 4 4 4 4 4 4 4 5 6 6 6 6 5 6 5 4 4 5 5 5 6 6
4 3 3 3 3 3 3 3 3 3 4 4 4 4 4 4 4 3 3 3 4 5 4 3 4 4 5 6 6 6 5 5 5 5 5 6 6 6
4 3 3 3 4 3 3 4 3 3 4 4 4 4 4 4 4 3 3 4 4 4 4 4 3 3 3 4 6 6 5 5 5 5 4 5 6 5
3 3 3 3 3 3 4 4 4 4 3 3 3 3 3 3 4 3 3 4 4 4 4 3 3 4 5 6 4 5 6 5 4 5 5 5 6 6
3 3 3 3 3 3 4 4 4 3 3 3 3 3 3 3 3 4 4 5 4 4 4 4 4 4 5 5 5 5 6 6 5 5 5 4 5 6
4 4 4 4 4 4 4 4 4 3 3 3 3 3 3 3 3 3 4 6 5 4 5 5 4 4 4 3 5 5 5 6 6 5 5 4 5 5
4 4 4 4 4 4 4 4 3 3 3 4 4 3 3 3 4 4 4 4 4 4 4 4 3 3 3 5 6 6 5 5 5 7 8 7 5 5
5 5 5 4 4 4 4 4 4 4 4 4 4 4 3 4 4 4 4 4 3 4 4 4 3 3 4 5 5 5 6 5 4 5 5 6 7 9
Wind_Direction
252 253 253 252 249 248 241 237 240 236 234 225 217 221 233 238 240 240 249 245 244 245 254 260 262 253 245 243 245 250 246 244 239 242 241 238 236 237
258 252 251 252 251 247 241 240 242 241 240 230 231 231 233 241 237 239 246 260 248 245 248 250 254 248 242 243 242 250 250 241 238 241 239 241 245 241
261 257 257 256 252 250 245 240 240 240 243 244 236 229 227 233 235 237 241 246 247 244 248 248 244 248 244 242 241 244 247 242 240 244 241 243 246 249
263 262 261 259 255 258 255 247 244 239 238 242 239 233 233 229 234 237 243 246 251 248 244 245 245 247 247 241 237 236 238 241 241 241 240 244 246 250
263 262 261 257 256 256 256 256 249 243 237 236 243 236 236 232 234 238 243 245 252 253 240 242 246 248 249 241 235 236 236 238 240 239 240 245 247 252
262 262 261 258 258 261 255 256 249 245 238 232 236 236 231 229 227 233 244 245 252 256 247 250 250 248 246 241 238 236 233 233 236 238 240 245 248 254
263 261 262 264 266 264 264 260 248 242 240 232 231 234 232 221 225 231 242 250 252 244 243 243 244 243 238 236 234 232 232 238 241 243 244 247 248 251
263 262 263 260 264 267 270 271 261 243 239 236 233 232 233 232 234 233 240 244 248 221 239 251 245 246 244 237 237 235 236 242 247 247 247 248 250 249
266 265 265 266 267 264 266 266 267 263 253 248 242 236 234 230 231 234 236 242 252 246 240 250 243 247 249 243 235 232 235 237 239 244 249 252 251 250
267 264 263 264 264 267 263 262 260 258 255 252 256 253 245 236 231 235 241 252 267 253 239 253 245 250 252 248 231 230 234 236 240 247 251 252 251 253
266 264 264 263 265 265 261 261 265 270 266 261 265 267 262 254 245 234 231 236 252 248 232 244 252 268 258 248 235 225 231 237 243 248 251 252 250 251
272 266 262 266 265 262 258 256 259 264 269 266 262 263 257 250 247 235 230 235 245 248 230 233 245 257 259 242 233 227 230 236 241 246 250 250 248 247
275 275 270 268 266 265 265 260 263 270 267 267 263 259 251 245 248 252 245 238 241 247 231 227 244 244 253 268 256 241 239 240 238 244 246 247 247 247
277 275 274 273 270 269 268 269 273 275 263 260 258 253 250 249 249 252 254 253 254 258 248 238 246 241 256 269 269 250 241 245 243 245 244 246 247 248
282 280 281 278 275 266 264 269 268 262 257 253 254 254 252 250 248 250 256 254 260 263 254 249 245 240 245 259 265 264 267 255 241 245 246 245 245 246
286 282 281 277 276 275 268 261 259 262 263 259 260 260 254 248 242 243 249 251 255 267 264 257 246 238 247 258 260 261 257 253 243 247 253 254 250 243
303 291 282 282 279 276 277 276 269 266 265 260 255 254 249 242 244 246 249 255 256 261 270 268 260 255 256 256 257 259 261 265 260 253 254 259 257 250
308 283 280 276 276 278 281 283 277 270 266 263 261 258 253 248 247 247 244 245 252 258 264 269 267 271 270 265 245 252 257 264 270 263 255 257 262 259
299 288 287 283 282 280 277 279 276 272 271 263 259 263 264 258 250 244 245 246 253 258 263 263 260 256 258 266 262 236 253 264 266 266 258 263 267 268
308 297 293 294 292 290 286 282 278 274 271 270 268 265 264 261 257 250 248 249 252 261 261 255 251 253 256 270 282 283 259 257 260 265 271 280 277 278
316 307 299 297 293 290 288 285 283 282 284 282 275 268 266 265 265 262 257 252 251 255 253 256 260 271 279 277 273 274 279 266 266 265 268 273 277 273
314 310 303 297 293 290 288 286 283 282 283 278 279 277 274 269 267 266 263 253 251 255 263 268 268 263 261 257 265 275 286 296 288 278 268 257 257 255
313 311 306 298 291 290 287 283 281 279 278 279 282 283 281 277 274 270 267 260 253 255 261 266 268 268 266 261 266 274 282 289 292 292 289 278 272 271